This demonstration page uses our WeatherBlox Daily Observations layout. Learn more.

Left ArrowRight Arrow

38.89511, -77.03637

Hourly Observations for January 11, 2021

Temp ( °F °C ) Dew Point ( °F °C ) Humidity (%) Winds ( mph kmh ) Pressure ( in mb ) Visibility ( mi km ) Precip ( " mm )
12:52 am 00:52 Mostly Cloudy 32 0 26 -3.3 79 79 Calm 30.32 1027 10 16 0.00 0.00
1:52 am 01:52 Partly Cloudy 32 0 27 -2.8 82 82 Calm 30.33 1027 10 16 0.00 0.00
2:52 am 02:52 Partly Cloudy 32 0 26 -3.3 79 79 Calm 30.34 1027 10 16 0.00 0.00
3:52 am 03:52 Mostly Cloudy 30 -1.1 25 -3.9 82 82 Calm 30.34 1027 10 16 0.00 0.00
4:52 am 04:52 Cloudy 32 0 25 -3.9 75 75 Calm 30.33 1027 10 16 0.00 0.00
5:52 am 05:52 Cloudy 32 0 27 -2.8 82 82 Calm 30.32 1027 10 16 0.00 0.00
6:52 am 06:52 Mostly Cloudy 32 0 26 -3.3 79 79 N 3 6 30.32 1027 10 16 0.00 0.00
7:52 am 07:52 Mostly Cloudy 33 0.6 28 -2.2 82 82 ENE 3 6 30.32 1027 10 16 0.00 0.00
8:52 am 08:52 Cloudy 34 1.1 27 -2.8 76 76 ENE 5 7 30.34 1027 10 16 0.00 0.00
9:52 am 09:52 Cloudy 37 2.8 28 -2.2 70 70 Calm 30.35 1028 10 16 0.00 0.00
10:52 am 10:52 Cloudy 40 4.4 31 -0.6 70 70 SSW 3 6 30.32 1027 9 14 0.00 0.00
11:52 am 11:52 Cloudy 41 5 28 -2.2 60 60 S 8 13 30.27 1025 10 16 0.00 0.00
12:52 pm 12:52 Cloudy 43 6.1 28 -2.2 56 56 SSW 7 11 30.25 1024 10 16 0.00 0.00
1:52 pm 13:52 Cloudy 43 6.1 28 -2.2 56 56 SSW 6 9 30.23 1024 10 16 0.00 0.00
2:52 pm 14:52 Cloudy 43 6.1 28 -2.2 56 56 SSW 7 11 30.22 1024 10 16 0.00 0.00
3:52 pm 15:52 Cloudy 43 6.1 31 -0.6 63 63 S 7 11 30.22 1023 10 16 0.00 0.00
4:52 pm 16:52 Cloudy 41 5 31 -0.6 67 67 S 5 7 30.22 1023 10 16 0.00 0.00
5:52 pm 17:52 Mostly Cloudy 41 5 29 -1.7 62 62 S 5 7 30.22 1023 10 16 0.00 0.00
6:52 pm 18:52 Mostly Cloudy 40 4.4 30 -1.1 68 68 SSW 3 6 30.22 1023 10 16 0.00 0.00
7:52 pm 19:52 Mostly Cloudy 40 4.4 31 -0.6 70 70 SSW 5 7 30.22 1024 10 16 0.00 0.00
8:52 pm 20:52 Mostly Cloudy 38 3.3 30 -1.1 73 73 Calm 30.22 1024 10 16 0.00 0.00
9:52 pm 21:52 Partly Cloudy 35 1.7 29 -1.7 78 78 SW 5 7 30.21 1023 10 16 0.00 0.00
10:52 pm 22:52 Partly Cloudy 33 0.6 28 -2.2 82 82 SSW 6 9 30.22 1023 10 16 0.00 0.00
11:52 pm 23:52 Mostly Cloudy 34 1.1 29 -1.7 82 82 SSW 3 6 30.21 1023 10 16 0.00 0.00

Powered by AerisWeather